Temp
8 8 8 8 8 8 8 8 8 8 9 9 10 12 12 11 12 15 18 23 24 24 25 26 26 28 28 29 31 31 29 29 31 33 34 37 37 38 38 37 37 37 37 37 37
7 8 8 8 8 8 8 8 8 8 8 8 10 12 13 12 12 18 22 23 23 24 24 26 28 29 29 30 30 30 29 30 33 34 34 36 36 37 36 36 36 36 37 38 37
7 7 7 7 8 8 8 8 8 8 8 8 8 9 12 12 18 25 21 23 23 24 24 27 29 30 29 30 30 30 30 31 33 34 35 35 35 36 36 35 36 35 37 37 37
7 7 7 7 7 7 7 8 8 8 8 8 8 8 11 11 23 23 22 22 22 22 24 25 27 28 29 29 31 30 31 32 33 34 34 34 35 35 36 36 37 36 37 37 36
7 7 7 8 8 8 9 9 8 8 8 8 8 8 10 17 20 23 22 22 22 22 23 24 25 27 28 30 31 30 31 33 34 34 34 35 35 35 35 36 37 37 37 36 36
7 7 7 7 7 8 8 9 10 10 9 8 8 8 11 14 20 22 24 23 24 24 25 26 26 27 29 30 31 32 32 33 34 35 35 34 35 35 35 36 36 36 36 36 36
7 7 8 8 8 8 8 9 10 10 10 9 8 9 13 15 18 20 21 22 23 24 26 27 28 27 28 28 31 32 31 32 33 34 34 34 33 34 35 35 35 35 36 36 35
8 8 8 9 9 10 10 11 12 11 10 10 8 10 13 17 18 19 20 20 21 22 24 25 26 27 28 29 29 30 30 30 32 33 33 33 30 33 35 35 34 35 35 35 35
7 7 7 7 7 8 9 10 12 13 11 9 10 13 16 19 19 19 20 21 23 23 24 24 25 25 27 27 27 29 29 29 31 33 33 33 31 34 35 35 34 34 34 34 35
7 7 7 8 9 9 9 12 15 11 12 13 13 16 18 19 21 21 22 21 22 23 23 24 24 23 25 27 26 27 28 29 30 32 33 32 32 34 35 35 34 35 34 34 34
7 8 8 8 9 10 8 12 19 17 16 16 19 18 20 21 21 22 22 22 23 22 21 23 22 23 24 26 28 29 29 29 31 33 32 32 32 33 34 34 35 34 34 33 33
8 8 8 8 10 11 10 16 17 16 15 18 18 19 19 20 20 22 22 21 21 20 22 22 23 25 26 26 27 27 28 29 31 32 32 32 32 33 34 34 34 34 34 33 33
8 8 9 10 10 12 14 16 16 16 15 17 18 19 20 21 20 21 22 21 20 20 21 21 24 25 25 26 27 28 27 28 29 30 32 32 31 32 34 34 35 34 34 33 33
8 8 9 10 11 14 16 15 16 15 13 18 20 21 21 22 20 23 23 21 21 20 21 22 24 24 25 25 27 27 29 29 29 29 28 31 29 31 32 33 34 34 34 33 33
8 8 10 8 10 15 15 15 15 15 12 20 18 21 21 21 21 21 21 22 20 21 21 21 23 24 24 26 27 27 29 29 29 29 29 29 29 30 32 32 33 33 34 33 34
9 8 10 13 11 14 14 14 14 11 11 16 15 17 17 17 18 21 21 21 21 21 21 22 24 24 25 26 27 29 28 29 29 30 28 29 29 29 31 32 33 34 35 34 34
9 9 9 10 14 13 13 14 11 10 17 16 18 18 18 18 20 20 20 20 19 17 19 21 22 24 25 25 27 27 27 26 26 27 27 30 29 30 31 33 33 34 34 34 35
10 10 11 13 14 13 13 12 10 13 17 18 18 18 17 19 20 20 20 19 21 20 18 15 18 22 24 25 26 26 27 27 24 26 28 30 29 30 33 34 35 34 34 35 34
10 13 14 14 13 13 13 12 12 16 17 17 17 14 16 15 15 18 20 19 20 17 16 16 19 23 24 25 26 26 26 28 28 29 29 31 31 32 33 34 34 34 34 33 32
8 13 16 14 13 13 12 13 15 18 18 17 15 13 12 16 14 14 16 16 18 19 18 17 16 20 22 25 25 26 29 26 28 26 27 30 32 33 33 33 34 33 33 31 30
10 16 16 14 14 14 12 15 16 17 17 16 16 13 15 14 15 15 15 18 17 18 18 18 16 17 19 22 24 26 26 27 28 29 28 28 30 34 34 34 33 33 33 31 30
14 16 16 15 13 12 13 16 15 15 17 17 17 16 13 14 15 16 16 14 14 16 15 17 16 16 18 23 26 27 26 27 27 26 29 30 31 34 34 34 34 34 33 31 30
14 18 16 15 12 12 14 15 16 16 16 15 15 16 16 14 12 15 14 14 14 14 13 13 15 15 17 21 23 25 27 28 28 29 28 29 30 34 34 34 34 33 32 31 30
14 16 18 17 16 13 14 13 14 15 14 15 15 16 15 13 15 14 12 15 16 16 15 12 13 15 17 16 17 21 26 28 28 27 28 30 31 32 33 33 34 32 31 31 30
15 16 15 14 14 13 13 13 13 14 15 15 13 15 15 14 16 16 16 16 16 15 14 10 12 15 17 14 14 16 21 28 28 29 28 30 31 32 33 33 32 31 31 31 30
14 13 14 12 14 13 13 13 13 14 13 13 13 14 15 14 15 15 16 16 15 14 13 13 12 15 16 17 15 14 21 24 29 30 30 30 32 33 32 32 32 31 31 31 30
12 12 11 11 14 14 13 12 13 13 13 15 15 13 14 15 16 16 17 16 16 16 16 15 14 12 16 18 14 17 22 25 29 31 31 30 32 32 31 32 32 32 32 31 31
Height
825 823 820 816 814 812 810 806 805 803 795 792 789 785 784 781 778 776 769 763 764 762 763 766 764 763 762 759 757 757 776 772 758 749 736 712 715 704 703 712 712 710 715 713 713
825 823 821 819 817 813 812 808 804 798 796 793 788 784 782 780 777 765 755 758 759 761 762 761 756 757 757 755 755 760 766 756 738 730 728 717 715 711 715 718 718 717 710 707 708
823 821 818 815 813 810 807 806 802 796 796 795 791 789 785 784 772 745 746 747 751 755 756 756 751 748 754 750 749 749 752 742 732 724 718 719 715 709 715 721 712 715 709 703 705
822 818 815 812 809 806 804 800 798 797 794 791 788 786 783 785 762 743 745 745 747 753 755 754 752 748 748 751 741 749 734 734 729 722 719 719 710 712 709 708 700 701 702 700 701
822 818 814 809 805 802 799 796 793 791 790 788 786 786 783 769 751 746 745 747 748 750 751 752 750 747 743 738 736 732 729 723 716 714 712 709 712 711 707 700 696 694 696 696 697
821 817 814 810 806 801 796 792 789 787 786 785 786 786 783 766 747 745 743 745 744 745 743 743 741 742 735 731 729 721 722 716 710 707 704 709 705 703 699 695 693 691 691 691 692
821 816 812 807 803 798 794 790 786 782 781 781 782 780 771 752 746 743 743 742 742 741 737 734 733 738 731 732 718 719 724 712 704 706 704 705 708 703 693 691 690 690 687 685 685
820 815 811 806 801 796 790 784 779 776 774 772 772 774 758 744 741 741 740 738 739 738 736 736 733 729 724 722 723 723 723 723 702 703 692 709 719 694 688 689 688 687 684 680 676
819 815 810 804 799 794 788 780 773 770 770 769 771 769 750 735 734 734 734 732 731 730 732 734 735 733 728 729 732 721 725 718 703 694 697 701 708 680 677 680 680 679 680 678 674
817 812 807 801 796 790 782 771 762 767 767 767 765 762 740 733 726 727 728 728 729 729 729 728 732 737 732 722 723 721 723 703 708 695 690 694 693 674 671 673 673 669 668 669 670
814 809 804 798 792 786 780 771 759 757 761 755 740 737 727 727 726 726 724 724 723 725 729 724 734 723 695 705 700 705 702 704 690 682 689 690 688 673 668 666 662 660 663 665 664
812 807 801 795 789 783 780 773 767 767 753 746 736 728 726 728 724 720 723 725 725 726 721 724 712 678 709 704 705 706 705 697 685 678 682 681 679 665 660 659 654 654 655 657 656
811 805 798 791 786 781 778 770 770 764 754 732 717 718 716 715 711 713 715 717 720 720 716 716 683 706 698 700 704 695 696 698 696 688 677 680 680 667 654 649 646 645 647 648 651
810 803 796 789 787 781 773 773 769 766 759 712 703 700 705 704 709 701 702 710 712 717 712 702 694 693 694 693 692 692 681 687 691 698 704 682 697 664 657 653 646 644 641 639 641
808 801 795 792 790 781 779 773 770 770 752 704 714 706 704 705 699 698 702 701 708 706 712 691 690 692 693 673 684 676 681 680 682 688 692 687 694 650 654 656 649 640 633 631 630
806 801 796 791 787 783 779 776 774 778 757 735 737 728 724 718 710 695 697 699 699 700 696 687 683 682 675 676 674 673 679 680 677 679 698 671 686 654 660 652 640 629 622 619 619
804 800 796 793 787 783 780 777 780 773 733 732 722 719 718 714 704 698 699 698 703 716 702 686 686 678 674 676 668 672 680 701 709 698 683 663 674 652 641 634 627 623 617 613 613
800 797 794 789 787 785 782 781 784 756 734 724 722 715 717 705 700 694 695 703 690 692 705 718 700 674 667 666 667 670 669 678 701 690 677 659 669 646 622 612 609 611 608 609 615
796 791 790 788 788 786 784 773 767 745 734 732 727 739 727 728 727 706 693 697 692 708 717 713 689 663 661 660 659 658 672 648 668 655 666 643 632 617 612 610 608 610 610 615 619
800 792 785 787 787 786 785 771 752 739 737 735 739 749 747 722 729 727 709 708 700 699 703 708 708 679 663 654 650 650 641 671 655 684 678 651 633 621 612 610 606 610 611 618 623
795 782 781 785 785 782 780 761 750 745 740 738 737 749 733 731 728 721 720 699 705 702 701 702 708 686 680 657 656 651 647 644 646 649 665 669 641 590 598 598 606 605 608 617 626
792 777 777 780 784 783 772 759 752 750 738 735 731 734 741 736 722 713 708 721 719 711 712 701 702 693 680 646 633 636 640 640 649 659 645 645 634 587 590 592 597 599 604 614 624
790 771 776 777 782 780 773 761 752 748 744 743 738 730 731 732 739 714 717 719 718 718 718 718 700 693 683 658 638 633 631 630 633 637 647 652 637 592 592 593 592 599 607 617 625
795 778 769 772 773 778 769 767 759 754 752 744 738 730 730 733 723 722 727 716 711 708 710 720 712 695 681 680 677 654 631 623 625 642 638 627 622 607 598 597 596 604 610 617 625
793 779 781 778 776 775 775 769 759 751 747 745 743 731 728 726 713 707 707 707 704 706 712 725 710 688 678 690 697 685 653 618 618 619 635 618 617 608 600 597 600 607 612 620 627
800 798 791 790 773 771 769 763 757 751 753 746 744 737 728 723 716 710 704 701 705 707 709 710 701 688 678 677 692 693 648 624 607 610 616 611 608 591 593 596 605 610 614 622 629
808 805 802 789 770 765 767 768 760 756 749 741 735 736 726 719 711 705 697 695 696 693 692 693 695 695 672 666 693 667 627 618 597 595 601 615 596 595 602 605 607 610 613 619 625
Wind_Speed
16 16 16 17 18 17 18 17 16 17 18 20 21 21 22 23 23 16 14 20 13 23 9 9 14 18 19 18 19 18 14 16 22 22 20 20 18 11 11 9 14 12 11 14 20
17 16 16 15 15 16 17 17 17 17 17 18 19 21 21 24 26 25 27 25 25 17 18 21 16 18 15 18 18 18 16 25 21 20 21 21 21 19 14 15 14 12 21 21 16
20 19 18 19 18 18 18 18 18 17 17 17 17 19 19 20 14 9 10 25 31 27 23 22 23 19 22 21 22 23 24 24 22 24 23 24 23 22 22 21 17 21 20 19 13
20 21 22 22 22 22 21 20 19 18 18 19 19 20 19 13 7 5 10 5 20 17 19 22 20 25 25 26 25 27 29 27 28 27 26 26 26 26 24 23 20 18 24 16 14
19 20 23 24 26 26 26 24 23 22 20 19 18 18 13 11 15 16 5 1 6 12 22 23 24 25 29 27 26 30 29 29 28 28 28 28 28 28 28 27 26 25 24 21 19
21 22 23 24 25 26 27 27 26 25 24 20 16 14 14 22 12 18 18 15 16 17 25 23 22 25 27 30 31 28 30 31 31 30 29 30 29 28 27 25 26 25 22 22 22
21 24 26 27 27 27 27 29 30 30 29 23 16 14 17 23 19 21 19 16 19 21 19 23 23 24 26 32 31 31 34 32 32 30 30 28 32 31 26 25 24 24 23 21 20
22 24 25 26 27 27 29 32 31 32 25 22 17 13 12 18 19 22 25 27 28 26 25 23 23 20 24 28 31 32 31 29 29 29 33 26 31 30 26 26 23 24 22 20 21
21 23 24 25 26 28 31 35 33 21 20 13 8 12 14 14 14 19 21 27 26 25 27 26 23 19 18 21 22 29 24 34 34 30 31 29 30 31 25 26 24 20 19 21 20
24 25 26 29 30 31 36 34 26 23 14 11 16 11 18 13 14 6 6 7 15 17 19 22 16 19 18 19 24 23 30 34 28 26 27 30 29 29 24 25 25 22 16 17 21
27 29 29 32 34 34 32 18 7 4 10 17 15 13 22 20 6 10 12 11 13 14 20 22 17 25 43 30 30 28 32 32 29 28 28 25 27 30 22 21 22 19 15 18 19
30 32 33 34 34 25 18 10 16 14 19 19 26 31 34 33 27 24 23 17 15 18 19 20 29 39 22 31 33 33 31 31 28 26 24 23 26 26 22 21 19 20 17 17 17
31 35 35 32 24 14 13 14 17 18 16 30 34 30 25 27 25 22 21 22 22 22 21 24 37 23 29 31 29 32 32 27 30 25 26 23 26 25 24 24 22 18 17 17 18
31 36 30 23 11 20 14 18 21 19 9 11 7 8 18 5 16 17 19 22 23 26 23 24 26 32 31 33 31 28 28 28 27 23 18 21 20 24 18 21 19 18 20 17 19
33 31 20 9 11 10 18 20 17 7 6 12 16 9 18 14 4 5 4 16 19 21 21 34 24 27 32 36 29 34 24 26 27 24 21 25 15 23 16 17 16 15 16 15 15
34 23 16 10 11 14 21 17 12 4 3 9 9 13 16 17 18 6 10 5 14 18 21 29 27 28 29 28 31 26 27 27 25 18 17 26 20 25 18 17 18 19 17 14 16
32 14 11 12 14 19 16 10 5 2 18 9 15 12 12 14 17 12 15 12 11 7 19 24 26 29 30 28 29 31 21 16 17 16 22 18 20 22 19 19 21 17 14 11 8
27 11 10 9 13 10 10 2 5 11 15 20 20 22 19 17 17 18 17 12 15 13 10 12 14 27 29 32 26 30 25 15 24 15 20 23 22 19 19 22 15 8 8 6 9
24 12 9 7 9 7 6 4 3 14 17 19 20 17 19 17 16 21 19 9 15 3 8 9 15 24 29 28 28 26 27 28 22 21 16 16 20 29 23 18 13 7 10 8 10
19 14 8 9 7 8 4 11 14 16 18 17 17 3 17 25 7 10 15 4 10 1 4 7 17 21 25 28 33 28 22 25 17 23 21 20 19 9 14 18 12 9 11 14 14
9 4 4 4 8 5 6 14 21 19 18 18 20 9 17 19 17 17 10 6 3 5 9 13 12 24 21 24 28 24 23 26 18 19 16 14 13 7 9 7 11 12 14 17 15
8 5 8 1 3 4 9 20 19 16 17 14 15 19 10 22 19 19 13 8 7 9 9 16 7 17 23 27 26 29 25 23 15 24 17 14 15 7 8 8 12 15 18 17 16
6 9 6 5 3 8 17 18 19 18 16 20 17 18 9 14 8 13 9 6 5 5 2 6 7 9 21 18 21 26 28 25 21 13 19 17 14 6 8 13 13 16 18 16 17
5 6 2 5 4 9 17 16 18 19 12 15 18 16 15 15 17 9 13 5 8 11 10 2 7 16 11 9 16 13 29 31 24 19 18 19 3 11 13 11 12 16 17 17 17
4 6 6 7 11 11 13 18 19 17 13 18 10 15 18 16 19 17 10 14 9 1 3 3 7 17 19 10 14 22 27 31 28 24 21 21 10 17 14 12 15 15 16 17 17
6 5 8 13 14 13 12 14 19 20 18 15 13 18 18 18 17 18 19 14 9 8 6 7 4 18 17 12 15 24 27 23 30 27 27 26 14 12 16 14 14 13 17 16 16
10 10 2 10 14 12 8 17 19 18 10 17 18 18 16 15 20 21 21 19 19 19 14 12 7 7 12 7 9 17 23 22 26 24 27 18 10 22 14 11 15 14 15 14 15
Wind_Direction
357 356 352 351 347 344 342 340 335 329 334 332 333 335 331 327 316 291 250 236 255 241 224 235 216 220 229 228 231 233 248 251 253 259 274 281 287 292 313 309 291 300 305 311 301
355 352 350 347 342 339 335 332 329 330 330 327 329 329 328 328 310 276 256 247 246 242 223 227 216 222 223 230 229 224 242 240 248 261 273 291 286 286 271 272 253 257 288 268 287
352 348 346 343 341 336 333 329 326 326 321 317 319 316 320 322 287 265 253 240 227 226 229 240 243 223 232 231 232 229 238 249 255 262 266 269 278 285 287 277 281 300 286 289 304
347 345 342 341 339 335 331 327 322 315 316 316 317 317 317 303 250 92 45 5 206 206 231 244 253 246 234 232 235 239 239 245 253 259 269 271 276 276 283 290 288 255 272 275 283
343 343 341 339 336 333 332 327 322 317 314 312 313 315 325 244 247 272 299 276 190 206 228 235 238 237 239 236 235 237 242 245 250 254 255 262 264 272 278 284 287 290 285 283 289
353 346 339 334 330 327 326 324 320 316 312 307 302 297 274 265 271 265 263 258 252 245 232 224 235 241 248 241 241 242 245 249 258 259 260 266 272 272 268 275 278 278 271 272 270
346 340 336 332 329 326 322 318 314 312 307 299 288 282 266 258 278 283 288 269 258 251 251 255 233 232 248 249 253 252 256 262 255 259 266 273 270 265 282 282 280 281 276 272 271
344 338 335 332 329 326 322 317 311 308 304 298 287 269 263 270 259 262 260 254 254 256 259 261 273 288 258 254 262 254 257 260 253 254 255 258 264 266 268 270 266 273 286 278 274
339 336 335 333 326 322 320 312 306 296 300 285 265 218 273 270 236 249 249 253 251 245 243 243 251 258 268 246 244 245 248 248 249 248 261 255 260 262 251 256 257 250 252 268 274
340 339 336 334 331 327 323 311 302 287 280 245 242 253 245 266 268 200 288 235 235 250 251 232 227 239 242 235 226 222 236 242 257 251 251 248 251 262 260 263 265 259 252 257 271
342 340 335 331 328 326 326 323 342 265 220 270 277 214 293 295 209 236 270 269 253 241 236 225 217 222 220 220 240 236 239 248 254 253 247 256 260 265 276 275 259 247 254 268 263
345 341 335 328 327 322 314 297 328 317 295 278 265 267 267 272 270 267 265 251 250 239 229 227 220 226 232 227 234 244 254 253 261 261 258 265 261 264 256 255 254 266 245 251 258
343 339 332 328 331 325 296 324 330 304 294 282 262 257 259 247 246 253 240 241 240 245 235 225 235 227 234 234 234 234 236 247 258 268 270 273 271 267 266 271 272 267 275 273 276
343 338 335 334 315 324 311 338 325 344 291 280 230 216 227 236 257 249 233 229 235 238 248 247 240 240 227 237 230 240 234 243 248 253 259 258 270 253 258 264 259 257 255 249 243
343 339 339 326 311 334 329 331 326 332 274 37 18 17 348 215 148 200 219 243 240 243 231 242 242 234 239 237 229 244 243 245 244 250 258 253 260 266 275 272 276 269 259 253 253
341 338 339 3 242 309 325 323 329 256 257 4 10 328 346 337 306 313 198 216 275 243 245 253 249 256 245 241 247 238 243 248 255 254 246 242 244 267 260 271 277 269 265 257 235
338 325 312 308 333 327 327 328 286 303 318 351 343 335 302 285 288 246 246 256 224 267 254 246 243 251 250 251 231 240 229 234 236 235 242 243 238 256 269 268 269 276 265 257 245
334 301 296 297 336 342 330 300 265 281 1 350 343 333 319 315 301 283 278 262 267 259 257 276 270 225 239 241 235 224 233 220 219 216 245 248 251 256 253 254 248 285 232 225 129
335 291 269 344 340 323 333 282 34 318 353 340 335 346 323 339 332 306 267 257 274 126 275 315 278 261 222 243 239 230 226 236 244 234 251 253 235 239 243 246 239 199 199 138 123
324 309 285 335 340 295 290 283 295 348 335 327 326 281 308 318 330 313 317 100 296 289 295 280 288 280 286 222 245 243 219 226 223 234 239 235 250 274 200 225 212 206 164 134 124
292 231 121 328 298 269 286 305 333 328 302 321 315 293 322 323 315 326 274 174 232 280 289 269 260 271 288 266 215 230 235 217 237 227 238 247 269 199 172 143 148 170 161 137 141
298 277 141 315 288 262 296 332 319 320 325 314 315 319 0 306 306 295 242 9 238 327 303 295 279 258 268 273 217 232 224 230 218 219 236 246 248 89 101 138 164 165 144 135 145
291 291 141 238 328 321 315 319 320 335 343 325 323 311 318 299 320 319 339 173 227 274 290 344 244 260 258 267 259 229 221 233 237 240 218 235 242 164 170 211 178 126 130 140 148
285 310 22 342 344 305 321 318 317 328 328 318 309 312 309 325 288 271 333 276 242 296 267 347 259 263 253 314 340 284 211 230 227 211 227 227 194 165 175 144 127 121 133 145 144
259 340 8 300 325 312 305 292 315 335 341 329 316 325 325 311 310 322 310 312 314 192 237 205 269 288 257 256 304 302 284 224 223 203 222 235 162 210 176 160 121 127 141 142 146
336 340 344 300 306 306 313 319 323 328 327 315 319 317 312 310 310 315 309 297 289 271 243 219 282 301 281 215 273 288 275 266 220 200 221 240 159 125 98 103 124 145 141 151 153
351 309 310 289 305 327 320 325 313 330 305 307 307 314 305 309 311 304 294 285 280 277 263 280 302 320 249 197 321 276 236 240 211 204 213 227 162 127 144 119 151 155 150 157 155